User: anonymous   Login
Location: Unspecified
(0.0000°N, 0.0000°E)
Time: 00:58:33
(UTC+00:00)
Language:

STARLINK-5748 - Orbit

View from above orbital plane
View from above orbital plane
View from above satellite
View from above satellite

Ground track
Ground track

The orbit is defined by the following mean orbital elements,

1 55604U          26145.34238683 +.00000000 +00000-0 -28412-4 0 00000
2 55604  43.0014 266.5078 0001454 261.5798  98.4889 15.27586561    02
Epoch (UTC): 25 May 2026 08:13:02
Eccentricity: 0.0001454
inclination: 43.0014°
perigee height: 482 km
apogee height: 484 km
right ascension of ascending node: 266.5078°
argument of perigee: 261.5798°
revolutions per day: 15.27586561
mean anomaly at epoch: 98.4889°

The dashed part of the orbit path shows where the satellite is in the earth's shadow,  

DLR